Date,TemperatureHighF,TemperatureAvgF,TemperatureLowF,DewpointHighF,DewpointAvgF,DewpointLowF,HumidityHigh,HumidityAvg,HumidityLow,PressureMaxIn,PressureMinIn,WindSpeedMaxMPH,WindSpeedAvgMPH,GustSpeedMaxMPH,PrecipitationSumIn
2013-2-1,44.2,30.3,18.1,22.5,12.9,3.9,65,49,30,30.46,30.14,6,2,14,0.00
2013-2-2,58.2,43.7,30.0,34.9,29.1,22.3,79,58,38,30.27,30.15,7,1,12,0.00
2013-2-3,56.4,49.2,41.1,32.2,27.9,23.4,65,45,31,30.28,29.88,5,3,12,0.00
2013-2-4,65.9,55.7,42.7,39.7,34.7,30.0,68,46,29,29.91,29.76,8,3,16,0.01
2013-2-5,67.4,50.8,34.5,42.3,34.3,29.5,83,57,28,30.00,29.86,4,1,7,0.00
2013-2-6,64.4,53.6,41.0,51.8,41.2,32.9,79,63,52,30.01,29.83,10,4,16,0.00
2013-2-7,59.0,51.9,43.6,54.7,47.2,36.2,93,84,71,30.11,29.77,11,4,18,0.05
2013-2-8,50.2,41.4,34.1,36.3,33.0,30.1,92,73,53,30.30,30.11,9,2,15,0.01
2013-2-9,44.0,41.3,38.9,42.4,36.0,33.1,94,82,68,30.13,29.69,8,4,15,0.04
2013-2-10,61.2,51.9,41.8,51.3,35.5,25.7,96,59,28,30.01,29.58,10,4,19,0.10
2013-2-11,52.7,42.8,35.0,28.2,20.9,-99.9,66,47,34,30.19,30.00,6,-38,14,0.00
2013-2-12,42.1,34.6,33.1,36.1,21.2,-99.9,94,72,58,30.09,29.92,8,-73,14,0.36
2013-2-13,56.2,44.3,33.8,37.1,32.7,26.0,95,67,41,30.03,29.91,4,2,10,0.02
2013-2-14,58.9,47.6,36.5,35.4,30.1,23.1,66,51,40,30.17,29.93,9,2,17,0.00
2013-2-15,45.0,37.3,29.6,31.5,19.4,12.2,75,50,28,30.38,30.17,11,4,17,0.00
2013-2-16,45.5,36.3,26.2,26.5,17.5,12.2,74,48,32,30.37,30.04,10,3,15,0.00
2013-2-17,68.5,52.8,37.8,35.5,30.6,21.5,67,45,27,30.04,29.70,12,5,20,0.00
2013-2-18,61.9,42.9,39.4,47.5,9.8,-99.9,73,42,42,30.11,29.55,14,-183,23,0.00
2013-2-19,51.2,41.0,30.0,26.1,23.3,20.8,71,50,35,30.32,30.11,5,1,12,0.00
2013-2-20,39.8,35.0,32.1,32.8,28.4,20.1,93,79,49,30.25,29.97,5,2,8,0.49
2013-2-21,35.5,33.0,26.6,34.0,30.7,20.1,95,91,76,29.98,29.65,9,3,16,1.08
2013-2-22,37.3,27.7,20.9,21.7,18.9,16.0,82,70,49,30.14,29.94,6,3,11,0.03
2013-2-23,46.2,33.9,21.9,25.8,21.1,17.0,82,61,42,30.13,29.93,3,1,5,0.00
2013-2-24,59.0,46.0,33.8,39.5,32.3,24.2,76,60,46,29.95,29.71,11,4,18,0.00
2013-2-25,46.7,39.4,32.9,37.0,34.4,31.3,95,83,62,29.78,29.43,10,6,18,1.38
2013-2-26,41.7,36.8,32.7,33.1,31.6,28.4,95,82,69,29.90,29.46,11,6,23,0.24
2013-2-27,46.3,37.1,31.7,31.3,27.9,25.8,85,70,45,30.14,29.88,11,4,20,0.00
2013-2-28,45.0,37.2,30.8,30.0,27.7,25.8,82,69,54,30.21,30.13,8,4,14,0.00